This demonstration page uses our WeatherBlox Daily Observations layout. Learn more.

Left ArrowRight Arrow

Hourly Observations for August 22, 2015

Temp ( °F °C ) Dew Point ( °F °C ) Humidity (%) Winds ( mph kmh ) Pressure ( in mb ) Visibility ( mi km ) Precip ( " mm )
12:11 am 00:11 Mostly Cloudy 72 22 66 19 83 83 S 17 28 29.8 1009 10 16.0934 0 0
12:54 am 00:54 Cloudy 71 21.7 67 19.4 87 87 S 14 22 29.82 1010 9 14.48406 0 0
1:54 am 01:54 Cloudy 72 22.2 67 19.4 84 84 S 15 24 29.82 1010 9 14.48406 0 0
2:11 am 02:11 Cloudy 72 22.2 67 19.4 84 84 S 15 24 29.8 1009 9 14.48406 0 0
2:22 am 02:22 Cloudy 72 22 66 19 83 83 S 15 24 29.8 1009 9 14.48406 0 0
2:54 am 02:54 Cloudy 72 22.2 68 20 87 87 S 12 19 29.81 1010 9 14.48406 0 0
3:35 am 03:35 Cloudy 71 21.7 68 20 90 90 SSE 15 24 29.77 1008 8 12.87472 0 0
3:47 am 03:47 Cloudy 72 22.2 68 20 87 87 S 12 19 29.8 1009 8 12.87472 0 0
3:54 am 03:54 Cloudy 72 22.2 68 20 87 87 S 12 19 29.81 1010 8 12.87472 0 0
4:54 am 04:54 Cloudy 72 22.2 68 20 87 87 S 13 20 29.8 1009 8 12.87472 0 0
5:54 am 05:54 Cloudy 72 22.2 68 20 87 87 S 15 24 29.79 1009 8 12.87472 0 0
6:54 am 06:54 Cloudy 72 22.2 68 20 87 87 S 13 20 29.8 1009 8 12.87472 0 0
7:54 am 07:54 Cloudy 72 22.2 68 20 87 87 S 15 24 29.79 1009 8 12.87472 0 0
8:46 am 08:46 Mostly Cloudy 73 23 68 20 83 83 S 20 31 29.74 1007 9 14.48406 0 0
8:54 am 08:54 Partly Cloudy 74 23.3 68 20 82 82 S 22 35 29.78 1008 9 14.48406 0 0
9:54 am 09:54 Sunny 78 25.6 69 20.6 74 74 S 24 39 29.75 1008 10 16.0934 0 0
10:54 am 10:54 Sunny 81 27.2 69 20.6 67 67 S 22 35 29.75 1007 10 16.0934 0 0
11:54 am 11:54 Sunny 86 30 70 21.1 59 59 S 20 31 29.73 1007 10 16.0934 0 0
12:54 pm 12:54 Sunny 88 31.1 71 21.7 57 57 SSW 18 30 29.73 1007 10 16.0934 0 0
1:54 pm 13:54 Sunny 88 31.1 70 21.1 55 55 S 23 37 29.72 1006 10 16.0934 0 0
2:54 pm 14:54 Mostly Cloudy 91 32.8 69 20.6 49 49 S 17 28 29.73 1007 10 16.0934 0 0
3:54 pm 15:54 Cloudy 89 31.7 66 18.9 47 47 S 14 22 29.75 1007 10 16.0934 0 0
4:44 pm 16:44 Mostly Cloudy with Thunderstorms 87 30.6 67 19.4 51 51 SSW 8 13 29.68 1005 10 16.0934 0 0
4:54 pm 16:54 Mostly Cloudy with Thunderstorms 87 30.6 68 20 53 53 W 12 19 29.75 1007 10 16.0934 0 0
5:13 pm 17:13 Cloudy with Nearby Thunderstorms 83 28.3 75 23.9 77 77 WNW 10 17 29.74 1007 10 16.0934 0 0.0254
5:31 pm 17:31 Cloudy with Light Rain 82 28 75 24 79 79 WNW 9 15 29.71 1006 9 14.48406 0 0
5:47 pm 17:47 Cloudy with Light Thunderstorms 82 28 73 23 74 74 W 6 9 29.71 1006 9 14.48406 0 0
5:54 pm 17:54 Cloudy with Thunderstorms 83 28.3 74 23.3 74 74 W 7 11 29.74 1007 10 16.0934 0.01 0.254
6:12 pm 18:12 Cloudy with Nearby Thunderstorms 77 25 64 18 65 65 NNW 21 33 29.74 1007 5 8.0467 0 0
6:38 pm 18:38 Mostly Cloudy with Haze 77 25 63 17 61 61 NNW 23 37 29.77 1008 5 8.0467 0 0
6:54 pm 18:54 Hazy 77 25 62 16.7 60 60 NNW 18 30 29.81 1010 5 8.0467 0 0
7:54 pm 19:54 Cloudy with Haze 73 22.8 62 16.7 69 69 N 10 17 29.87 1012 5 8.0467 0 0
8:54 pm 20:54 Cloudy with Haze 71 21.7 60 15.6 68 68 N 8 13 29.93 1014 6 9.65604 0 0
9:54 pm 21:54 Cloudy with Nearby Thunderstorms 69 20.6 61 16.1 76 76 NNE 7 11 29.95 1014 6 9.65604 0 0.0254
10:06 pm 22:06 Cloudy with Light Thunderstorms 70 21.1 61 16.1 73 73 WNW 6 9 29.97 1015 6 9.65604 0 0.0254
10:30 pm 22:30 Cloudy with Haze 70 21 63 17 78 78 NNW 7 11 29.97 1015 5 8.0467 0 0
10:54 pm 22:54 Cloudy with Haze 70 21.1 61 16.1 73 73 N 14 22 29.98 1015 5 8.0467 0 0.0254
11:54 pm 23:54 Hazy 67 19.4 57 13.9 71 71 NNW 10 17 30 1016 6 9.65604 0 0

Powered by AerisWeather